User: anonymous   Login
Location: Lecco
(45.8566°N, 9.3977°E)
Time: 19:57:28
(UTC+02:00)
Language:

deb Explorer IX - Orbit

View from above orbital plane
View from above orbital plane
View from above satellite
View from above satellite

Ground track
Ground track

The orbit data is extracted from the following two-line orbital elements,

1    85U 61004C   20227.01327049  .00004362  00000-0  93074-3 0  9994
2    85  38.7723  87.3761 0390085 164.9792 196.2924 14.21025371939268
Epoch (UTC): 14 August 2020 00:19:06
Eccentricity: 0.0390085
inclination: 38.7723°
perigee height: 541 km
apogee height: 1103 km
right ascension of ascending node: 87.3761°
argument of perigee: 164.9792°
revolutions per day: 14.21025371
mean anomaly at epoch: 196.2924°
orbit number at epoch: 93926

The dashed part of the orbit path shows where the satellite is in the earth's shadow,  

DLR